STARLINK-32076, 60350

Orbit data source: Space-Track

STARLINK-32076, 60350 is a payload satellite owned by SpaceX/Seattle (US) in LEO that was launched on Fri, 02 Aug 2024 UTC via an FALCON 9 launch vehicle from the Air Force Eastern Test Range (AFETR). Payloads include a variety of satellites, spacecraft, and rockets equipped with specific instruments for various scientific and technological missions. These include communications satellites like Starlink; space stations such as the ISS; scientific satellites like the Hubble; Earth observation satellites from companies like Planet Labs, Umbra, and HawkEye 360; GPS; miniature CubeSats for education and research; and military/defense satellites.

Loading next visibility...
STARLINK-32076 details
Identifier
60350, 2024-136X
Orbit
LEO
Last TLE update12 hours ago
Origin
Flag of USSpaceX/Seattle (US)
ManufacturerSpaceX/Seattle
MissionOperational spacecraft
Bus & MotorSTARLINK V2M, Unknown motor
Mass730 kg wet, ~700 kg dry
Launch date (UTC)
2024-08-02 (5 months ago)
Launch vehicle
FALCON 9
Launch site
Air Force Eastern Test Range (AFETR)
Object type
Payload
Rocket body
Debris
Shape & HBRUnknown
Radar Cross SectionLarge (>1 m²)

Expand to show TLE details & history

TLE from 12 hours ago
0 STARLINK-32076
1 60350U 24136X   25014.85862829 -.00001506  00000-0 -38762-4 0  9994
2 60350  53.1597 220.8051 0001150  86.1864 273.9268 15.30182071 25545
Epoch: 2025-01-14T20:36Z
Definitive object data (Epoch: 2025-01-14T20:36:25.484Z)
Latitude-0.00003°
Longitude157.13961°
Altitude476.114 km
Speed7.629 km/s
True Right ascension14h 43m 13s
True Declination0° 00' 00"
Sunlit
Object was in daylight at TLE epoch
Visualization TLE readout
Latitude36.8209°
Longitude-58.99885°
Altitude477.64 km
Speed7.632 km/s
Apparent Right ascension22h 40m 13s
Apparent Declination0° 06' 14"
Sunlit
Object is in daylight
Visualization observer readout
Local Sidereal Time08:48:50
Azimuth320.605° NNW
Elevation-42.61°
Doppler factor1
Orbital elements
Apogee altitude476.313 km
Perigee altitude474.737 km
Semi-major axis6,853.662 km
Eccentricity0.000115
Inclination53.1597°
RAAN220.8051°
Arg. of periapsis86.1864°
True anomaly273.91365°
Mean anomaly273.9268°
Eccentric anomaly273.92023°
Mean motion3.82524 °/min
BSTAR-0.000038762
Orbital period94.11 mins
Loading maneuver chart data...
Loading historical data...
Loading historical data...
Loading historical data...
Loading historical data...
Loading historical data...
Loading historical data...
Loading historical data...

STARLINK-32076 Visibility forecast

Observer location: undefined°, undefined

Span
Click to sort rows by Start time (UTC) header in descending order
Start Az.
Max El. time (UTC)
Max El. Az.
Max El.
End time (UTC)
End Az.
6 mins2025-01-15 15:34:10.494Z195.754° SSW2025-01-15 15:37:10.494Z138.018° SSE28.04°2025-01-15 15:40:10.494Z71.339° E
5 mins2025-01-15 17:13:10.494Z276.428° WNW2025-01-15 17:15:10.494Z327.402° NNW27.998°2025-01-15 17:18:10.494Z31.52° NE
5 mins2025-01-15 22:10:10.494Z339.334° N2025-01-15 22:12:10.494Z31.684° NE27.963°2025-01-15 22:15:10.494Z93.913° ESE
5 mins2025-01-15 23:48:10.494Z277.628° WNW2025-01-15 23:50:10.494Z222.884° SW28.131°2025-01-15 23:53:10.494Z164.345° S
|